<?xml version="1.0"?>
<gpx xmlns="http://www.topografix.com/GPX/1/1" xmlns:xsi="http://www.w3.org/2001/XMLSchema-instance" version="1.1" creator="GPX RubyGem 1.0.0 -- http://dougfales.github.io/gpx/" xsi:schemaLocation="http://www.topografix.com/GPX/1/1 http://www.topografix.com/GPX/1/1/gpx.xsd">
  <metadata>
    <name/>
    <time>2026-05-07T12:24:35+00:00</time>
    <bound minlat="90.0" minlon="180.0" maxlat="-90.0" maxlon="-180.0"/>
  </metadata>
  <trk>
    <name/>
    <trkseg>
      <trkpt lat="47.929966" lon="12.386408">
        <time>1970-01-01T00:00:00+00:00</time>
        <ele>529.0</ele>
      </trkpt>
      <trkpt lat="47.929579" lon="12.386419">
        <time>1970-01-01T00:00:00+00:00</time>
        <ele>530.0</ele>
      </trkpt>
      <trkpt lat="47.929629" lon="12.386618">
        <time>1970-01-01T00:00:00+00:00</time>
        <ele>529.0</ele>
      </trkpt>
      <trkpt lat="47.929757" lon="12.387129">
        <time>1970-01-01T00:00:00+00:00</time>
        <ele>529.0</ele>
      </trkpt>
      <trkpt lat="47.929937" lon="12.387701">
        <time>1970-01-01T00:00:00+00:00</time>
        <ele>529.0</ele>
      </trkpt>
      <trkpt lat="47.930211" lon="12.388552">
        <time>1970-01-01T00:00:00+00:00</time>
        <ele>530.0</ele>
      </trkpt>
      <trkpt lat="47.930364" lon="12.389007">
        <time>1970-01-01T00:00:00+00:00</time>
        <ele>531.0</ele>
      </trkpt>
      <trkpt lat="47.930496" lon="12.389329">
        <time>1970-01-01T00:00:00+00:00</time>
        <ele>531.0</ele>
      </trkpt>
      <trkpt lat="47.930114" lon="12.38948">
        <time>1970-01-01T00:00:00+00:00</time>
        <ele>534.0</ele>
      </trkpt>
      <trkpt lat="47.929955" lon="12.389511">
        <time>1970-01-01T00:00:00+00:00</time>
        <ele>536.0</ele>
      </trkpt>
      <trkpt lat="47.928709" lon="12.389488">
        <time>1970-01-01T00:00:00+00:00</time>
        <ele>532.0</ele>
      </trkpt>
      <trkpt lat="47.927781" lon="12.389413">
        <time>1970-01-01T00:00:00+00:00</time>
        <ele>531.0</ele>
      </trkpt>
      <trkpt lat="47.927484" lon="12.389396">
        <time>1970-01-01T00:00:00+00:00</time>
        <ele>536.0</ele>
      </trkpt>
      <trkpt lat="47.927386" lon="12.389274">
        <time>1970-01-01T00:00:00+00:00</time>
        <ele>537.0</ele>
      </trkpt>
      <trkpt lat="47.927299" lon="12.389059">
        <time>1970-01-01T00:00:00+00:00</time>
        <ele>536.0</ele>
      </trkpt>
      <trkpt lat="47.927185" lon="12.388952">
        <time>1970-01-01T00:00:00+00:00</time>
        <ele>536.0</ele>
      </trkpt>
      <trkpt lat="47.92707" lon="12.38892">
        <time>1970-01-01T00:00:00+00:00</time>
        <ele>537.0</ele>
      </trkpt>
      <trkpt lat="47.926904" lon="12.38893">
        <time>1970-01-01T00:00:00+00:00</time>
        <ele>537.0</ele>
      </trkpt>
      <trkpt lat="47.9262" lon="12.389048">
        <time>1970-01-01T00:00:00+00:00</time>
        <ele>535.0</ele>
      </trkpt>
      <trkpt lat="47.92607" lon="12.389016">
        <time>1970-01-01T00:00:00+00:00</time>
        <ele>535.0</ele>
      </trkpt>
      <trkpt lat="47.925581" lon="12.38907">
        <time>1970-01-01T00:00:00+00:00</time>
        <ele>535.0</ele>
      </trkpt>
      <trkpt lat="47.925236" lon="12.38907">
        <time>1970-01-01T00:00:00+00:00</time>
        <ele>534.0</ele>
      </trkpt>
      <trkpt lat="47.925121" lon="12.389038">
        <time>1970-01-01T00:00:00+00:00</time>
        <ele>533.0</ele>
      </trkpt>
      <trkpt lat="47.924769" lon="12.389113">
        <time>1970-01-01T00:00:00+00:00</time>
        <ele>531.0</ele>
      </trkpt>
      <trkpt lat="47.924596" lon="12.389102">
        <time>1970-01-01T00:00:00+00:00</time>
        <ele>531.0</ele>
      </trkpt>
      <trkpt lat="47.924503" lon="12.389059">
        <time>1970-01-01T00:00:00+00:00</time>
        <ele>530.0</ele>
      </trkpt>
      <trkpt lat="47.92387" lon="12.388093">
        <time>1970-01-01T00:00:00+00:00</time>
        <ele>528.0</ele>
      </trkpt>
      <trkpt lat="47.923712" lon="12.387804">
        <time>1970-01-01T00:00:00+00:00</time>
        <ele>528.0</ele>
      </trkpt>
      <trkpt lat="47.923591" lon="12.387511">
        <time>1970-01-01T00:00:00+00:00</time>
        <ele>529.0</ele>
      </trkpt>
      <trkpt lat="47.923378" lon="12.388185">
        <time>1970-01-01T00:00:00+00:00</time>
        <ele>528.0</ele>
      </trkpt>
      <trkpt lat="47.923052" lon="12.387777">
        <time>1970-01-01T00:00:00+00:00</time>
        <ele>531.0</ele>
      </trkpt>
      <trkpt lat="47.923052" lon="12.387777">
        <time>1970-01-01T00:00:00+00:00</time>
        <ele>531.0</ele>
      </trkpt>
      <trkpt lat="47.923378" lon="12.388185">
        <time>1970-01-01T00:00:00+00:00</time>
        <ele>528.0</ele>
      </trkpt>
      <trkpt lat="47.923591" lon="12.387511">
        <time>1970-01-01T00:00:00+00:00</time>
        <ele>529.0</ele>
      </trkpt>
      <trkpt lat="47.923712" lon="12.387804">
        <time>1970-01-01T00:00:00+00:00</time>
        <ele>528.0</ele>
      </trkpt>
      <trkpt lat="47.92387" lon="12.388093">
        <time>1970-01-01T00:00:00+00:00</time>
        <ele>528.0</ele>
      </trkpt>
      <trkpt lat="47.924503" lon="12.389059">
        <time>1970-01-01T00:00:00+00:00</time>
        <ele>530.0</ele>
      </trkpt>
      <trkpt lat="47.924596" lon="12.389102">
        <time>1970-01-01T00:00:00+00:00</time>
        <ele>531.0</ele>
      </trkpt>
      <trkpt lat="47.924769" lon="12.389113">
        <time>1970-01-01T00:00:00+00:00</time>
        <ele>531.0</ele>
      </trkpt>
      <trkpt lat="47.925121" lon="12.389038">
        <time>1970-01-01T00:00:00+00:00</time>
        <ele>533.0</ele>
      </trkpt>
      <trkpt lat="47.925236" lon="12.38907">
        <time>1970-01-01T00:00:00+00:00</time>
        <ele>534.0</ele>
      </trkpt>
      <trkpt lat="47.925581" lon="12.38907">
        <time>1970-01-01T00:00:00+00:00</time>
        <ele>535.0</ele>
      </trkpt>
      <trkpt lat="47.92607" lon="12.389016">
        <time>1970-01-01T00:00:00+00:00</time>
        <ele>535.0</ele>
      </trkpt>
      <trkpt lat="47.9262" lon="12.389048">
        <time>1970-01-01T00:00:00+00:00</time>
        <ele>535.0</ele>
      </trkpt>
      <trkpt lat="47.926904" lon="12.38893">
        <time>1970-01-01T00:00:00+00:00</time>
        <ele>537.0</ele>
      </trkpt>
      <trkpt lat="47.92707" lon="12.38892">
        <time>1970-01-01T00:00:00+00:00</time>
        <ele>537.0</ele>
      </trkpt>
      <trkpt lat="47.927185" lon="12.388952">
        <time>1970-01-01T00:00:00+00:00</time>
        <ele>536.0</ele>
      </trkpt>
      <trkpt lat="47.927299" lon="12.389059">
        <time>1970-01-01T00:00:00+00:00</time>
        <ele>536.0</ele>
      </trkpt>
      <trkpt lat="47.927386" lon="12.389274">
        <time>1970-01-01T00:00:00+00:00</time>
        <ele>537.0</ele>
      </trkpt>
      <trkpt lat="47.927484" lon="12.389396">
        <time>1970-01-01T00:00:00+00:00</time>
        <ele>536.0</ele>
      </trkpt>
      <trkpt lat="47.927781" lon="12.389413">
        <time>1970-01-01T00:00:00+00:00</time>
        <ele>531.0</ele>
      </trkpt>
      <trkpt lat="47.928709" lon="12.389488">
        <time>1970-01-01T00:00:00+00:00</time>
        <ele>532.0</ele>
      </trkpt>
      <trkpt lat="47.929955" lon="12.389511">
        <time>1970-01-01T00:00:00+00:00</time>
        <ele>536.0</ele>
      </trkpt>
      <trkpt lat="47.930114" lon="12.38948">
        <time>1970-01-01T00:00:00+00:00</time>
        <ele>534.0</ele>
      </trkpt>
      <trkpt lat="47.930496" lon="12.389329">
        <time>1970-01-01T00:00:00+00:00</time>
        <ele>531.0</ele>
      </trkpt>
      <trkpt lat="47.930364" lon="12.389007">
        <time>1970-01-01T00:00:00+00:00</time>
        <ele>531.0</ele>
      </trkpt>
      <trkpt lat="47.930211" lon="12.388552">
        <time>1970-01-01T00:00:00+00:00</time>
        <ele>530.0</ele>
      </trkpt>
      <trkpt lat="47.929937" lon="12.387701">
        <time>1970-01-01T00:00:00+00:00</time>
        <ele>529.0</ele>
      </trkpt>
      <trkpt lat="47.929757" lon="12.387129">
        <time>1970-01-01T00:00:00+00:00</time>
        <ele>529.0</ele>
      </trkpt>
      <trkpt lat="47.929629" lon="12.386618">
        <time>1970-01-01T00:00:00+00:00</time>
        <ele>529.0</ele>
      </trkpt>
      <trkpt lat="47.929579" lon="12.386419">
        <time>1970-01-01T00:00:00+00:00</time>
        <ele>530.0</ele>
      </trkpt>
      <trkpt lat="47.929966" lon="12.386408">
        <time>1970-01-01T00:00:00+00:00</time>
        <ele>529.0</ele>
      </trkpt>
    </trkseg>
  </trk>
</gpx>
